| time (UTC) | temp F | wind direction | speed MPH | gust MPH | rain 1hr in | rain 24hr in | rain mn in | humidity % | barometer mb |
| 20260509000029 | 44 | 0 | 0.0 | 0.0 | 0.00 | 0.00 | 0.00 | 69 | 1006.8 |
| 20260508234531 | 45 | 0 | 0.0 | 0.0 | 0.00 | 0.00 | 0.00 | 67 | 1007.0 |
| 20260508233030 | 45 | 0 | 0.0 | 0.0 | 0.00 | 0.00 | 0.00 | 67 | 1007.1 |
| 20260508231530 | 45 | 0 | 0.0 | 1.0 | 0.00 | 0.00 | 0.00 | 66 | 1007.3 |
| 20260508230047 | 45 | 0 | 0.0 | 4.0 | 0.00 | 0.00 | 0.00 | 68 | 1007.5 |
| 20260508224552 | 44 | 0 | 0.0 | 1.0 | 0.00 | 0.00 | 0.00 | 70 | 1007.7 |
| 20260508223034 | 43 | 234 | 0.0 | 3.0 | 0.00 | 0.00 | 0.00 | 70 | 1007.8 |
| 20260508221530 | 44 | 0 | 0.0 | 0.0 | 0.00 | 0.00 | 0.00 | 69 | 1007.9 |
| 20260508220031 | 44 | 0 | 0.0 | 0.0 | 0.00 | 0.00 | 0.00 | 64 | 1008.1 |
| 20260508214527 | 44 | 0 | 0.0 | 3.0 | 0.00 | 0.00 | 0.00 | 64 | 1008.2 |
| 20260508213029 | 44 | 0 | 0.0 | 0.0 | 0.00 | 0.00 | 0.00 | 63 | 1008.4 |
| 20260508211531 | 45 | 0 | 0.0 | 0.0 | 0.00 | 0.00 | 0.00 | 65 | 1008.4 |
| 20260508210032 | 44 | 0 | 0.0 | 0.0 | 0.00 | 0.00 | 0.00 | 67 | 1008.6 |
| 20260508204530 | 44 | 0 | 0.0 | 6.0 | 0.00 | 0.00 | 0.00 | 69 | 1008.9 |
| 20260508203028 | 43 | 0 | 0.0 | 1.0 | 0.00 | 0.00 | 0.00 | 68 | 1009.1 |
| 20260508201531 | 44 | 0 | 0.0 | 0.0 | 0.00 | 0.00 | 0.00 | 66 | 1009.2 |
| 20260508200030 | 43 | 0 | 0.0 | 0.0 | 0.00 | 0.00 | 0.00 | 65 | 1009.2 |
| 20260508194530 | 43 | 0 | 0.0 | 0.0 | 0.00 | 0.00 | 0.00 | 69 | 1009.3 |
| 20260508193055 | 42 | 0 | 1.0 | 11.0 | 0.00 | 0.00 | 0.00 | 67 | 1009.6 |
| 20260508191530 | 42 | 0 | 0.0 | 4.0 | 0.00 | 0.00 | 0.00 | 69 | 1009.7 |
| 20260508190036 | 43 | 0 | 0.0 | 1.0 | 0.00 | 0.00 | 0.00 | 69 | 1009.8 |
| 20260508184530 | 43 | 0 | 0.0 | 8.0 | 0.00 | 0.00 | 0.00 | 72 | 1010.0 |
| 20260508183031 | 42 | 34 | 0.0 | 8.0 | 0.00 | 0.00 | 0.00 | 72 | 1010.3 |
| 20260508181530 | 42 | 64 | 0.0 | 8.0 | 0.00 | 0.00 | 0.00 | 73 | 1010.5 |
| 20260508180031 | 42 | 0 | 0.0 | 4.0 | 0.00 | 0.00 | 0.00 | 75 | 1010.7 |
| 20260508174543 | 41 | 0 | 0.0 | 3.0 | 0.00 | 0.00 | 0.00 | 75 | 1010.9 |
| 20260508173030 | 41 | 0 | 0.0 | 3.0 | 0.00 | 0.00 | 0.00 | 77 | 1011.1 |
| 20260508171531 | 41 | 0 | 0.0 | 4.0 | 0.00 | 0.00 | 0.00 | 77 | 1011.2 |
| 20260508170032 | 40 | 0 | 0.0 | 2.0 | 0.00 | 0.00 | 0.00 | 81 | 1011.4 |
| 20260508164536 | 39 | 0 | 0.0 | 0.0 | 0.00 | 0.00 | 0.00 | 82 | 1011.6 |
| 20260508163033 | 39 | 0 | 0.0 | 0.0 | 0.00 | 0.00 | 0.00 | 83 | 1011.8 |
| 20260508161539 | 38 | 0 | 0.0 | 0.0 | 0.00 | 0.00 | 0.00 | 84 | 1011.9 |
| 20260508160033 | 38 | 0 | 0.0 | 0.0 | 0.00 | 0.00 | 0.00 | 85 | 1012.0 |
| 20260508154528 | 37 | 0 | 0.0 | 0.0 | 0.00 | 0.00 | 0.00 | 86 | 1012.1 |
| 20260508153037 | 37 | 0 | 0.0 | 0.0 | 0.00 | 0.00 | 0.00 | 86 | 1012.1 |
| 20260508151538 | 36 | 0 | 0.0 | 0.0 | 0.00 | 0.00 | 0.00 | 86 | 1012.2 |
| 20260508150030 | 36 | 0 | 0.0 | 0.0 | 0.00 | 0.00 | 0.00 | 86 | 1012.5 |
| 20260508144530 | 36 | 0 | 0.0 | 0.0 | 0.00 | 0.00 | 0.00 | 85 | 1012.6 |
| 20260508143031 | 36 | 0 | 0.0 | 0.0 | 0.00 | 0.00 | 0.00 | 86 | 1012.7 |
| 20260508141532 | 37 | 0 | 0.0 | 0.0 | 0.00 | 0.00 | 0.00 | 85 | 1013.0 |
| 20260508140030 | 37 | 0 | 0.0 | 0.0 | 0.00 | 0.00 | 0.00 | 85 | 1013.1 |
| 20260508134527 | 37 | 0 | 0.0 | 0.0 | 0.00 | 0.00 | 0.00 | 84 | 1013.3 |
| 20260508133051 | 37 | 0 | 0.0 | 0.0 | 0.00 | 0.00 | 0.00 | 84 | 1013.5 |
| 20260508131528 | 37 | 0 | 0.0 | 0.0 | 0.00 | 0.00 | 0.00 | 84 | 1013.6 |
| 20260508130029 | 37 | 0 | 0.0 | 0.0 | 0.00 | 0.00 | 0.00 | 84 | 1013.8 |
| 20260508124532 | 37 | 0 | 0.0 | 0.0 | 0.00 | 0.00 | 0.00 | 84 | 1013.9 |
| 20260508123028 | 37 | 0 | 0.0 | 0.0 | 0.00 | 0.00 | 0.00 | 84 | 1014.1 |
| 20260508121533 | 37 | 0 | 0.0 | 0.0 | 0.00 | 0.00 | 0.00 | 84 | 1014.3 |
| 20260508120031 | 38 | 0 | 0.0 | 0.0 | 0.00 | 0.00 | 0.00 | 84 | 1014.4 |
| 20260508114530 | 38 | 0 | 0.0 | 0.0 | 0.00 | 0.00 | 0.00 | 84 | 1014.7 |
| 20260508113034 | 38 | 0 | 0.0 | 0.0 | 0.00 | 0.00 | 0.00 | 83 | 1014.7 |
| 20260508111529 | 38 | 0 | 0.0 | 0.0 | 0.00 | 0.00 | 0.00 | 83 | 1015.0 |
| 20260508110032 | 38 | 0 | 0.0 | 6.0 | 0.00 | 0.00 | 0.00 | 82 | 1015.1 |
| 20260508104528 | 39 | 0 | 0.0 | 0.0 | 0.00 | 0.00 | 0.00 | 82 | 1015.3 |
| 20260508103029 | 39 | 0 | 0.0 | 0.0 | 0.00 | 0.00 | 0.00 | 81 | 1015.4 |
| 20260508101542 | 39 | 0 | 0.0 | 0.0 | 0.00 | 0.00 | 0.00 | 79 | 1015.5 |
| 20260508100031 | 40 | 0 | 0.0 | 0.0 | 0.00 | 0.00 | 0.00 | 77 | 1015.5 |
| 20260508094530 | 40 | 0 | 0.0 | 0.0 | 0.00 | 0.00 | 0.00 | 76 | 1015.6 |
| 20260508093031 | 40 | 0 | 0.0 | 0.0 | 0.00 | 0.00 | 0.00 | 73 | 1015.5 |
| 20260508091554 | 41 | 0 | 0.0 | 2.0 | 0.00 | 0.00 | 0.00 | 71 | 1015.6 |
| 20260508090032 | 41 | 0 | 0.0 | 0.0 | 0.00 | 0.00 | 0.00 | 66 | 1015.7 |
| 20260508084532 | 41 | 0 | 0.0 | 7.0 | 0.00 | 0.01 | 0.00 | 66 | 1015.6 |
| 20260508083037 | 42 | 0 | 0.0 | 0.0 | 0.00 | 0.01 | 0.00 | 64 | 1015.7 |
| 20260508081529 | 43 | 0 | 0.0 | 8.0 | 0.00 | 0.01 | 0.00 | 59 | 1015.8 |
| 20260508080028 | 43 | 186 | 0.0 | 10.0 | 0.00 | 0.01 | 0.00 | 60 | 1016.1 |
| 20260508074530 | 42 | 0 | 0.0 | 0.0 | 0.00 | 0.06 | 0.01 | 67 | 1016.1 |
| 20260508073035 | 43 | 0 | 0.0 | 0.0 | 0.00 | 0.06 | 0.01 | 61 | 1016.3 |
| 20260508071532 | 43 | 0 | 0.0 | 5.0 | 0.00 | 0.06 | 0.01 | 59 | 1016.5 |
| 20260508070032 | 43 | 0 | 0.0 | 1.0 | 0.00 | 0.06 | 0.01 | 59 | 1016.5 |
| 20260508064532 | 43 | 0 | 0.0 | 3.0 | 0.00 | 0.11 | 0.01 | 60 | 1016.5 |
| 20260508063055 | 44 | 121 | 0.0 | 11.0 | 0.00 | 0.11 | 0.01 | 60 | 1016.4 |
| 20260508061531 | 44 | 0 | 0.0 | 12.0 | 0.00 | 0.11 | 0.01 | 58 | 1016.5 |
| 20260508060029 | 44 | 0 | 1.0 | 13.0 | 0.00 | 0.11 | 0.01 | 59 | 1016.4 |
| 20260508054532 | 45 | 162 | 1.0 | 9.0 | 0.00 | 0.14 | 0.01 | 58 | 1016.5 |
| 20260508053043 | 45 | 212 | 0.0 | 7.0 | 0.00 | 0.14 | 0.01 | 57 | 1016.4 |
| 20260508051537 | 45 | 0 | 0.0 | 8.0 | 0.00 | 0.14 | 0.01 | 59 | 1016.6 |
| 20260508050030 | 45 | 0 | 0.0 | 10.0 | 0.00 | 0.14 | 0.01 | 59 | 1016.6 |
| 20260508044530 | 46 | 0 | 0.0 | 4.0 | 0.00 | 0.22 | 0.01 | 58 | 1016.8 |
| 20260508043029 | 46 | 0 | 0.0 | 1.0 | 0.00 | 0.22 | 0.01 | 57 | 1016.7 |
| 20260508041532 | 46 | 0 | 0.0 | 1.0 | 0.00 | 0.22 | 0.01 | 57 | 1017.0 |
| 20260508040031 | 46 | 0 | 0.0 | 6.0 | 0.00 | 0.22 | 0.01 | 57 | 1017.1 |
| 20260508034530 | 46 | 0 | 2.0 | 9.0 | 0.00 | 0.25 | 0.01 | 57 | 1017.1 |
| 20260508033034 | 46 | 0 | 0.0 | 8.0 | 0.00 | 0.25 | 0.01 | 58 | 1017.3 |
| 20260508031529 | 45 | 0 | 0.0 | 0.0 | 0.00 | 0.25 | 0.01 | 61 | 1017.4 |
| 20260508030036 | 44 | 0 | 0.0 | 0.0 | 0.00 | 0.25 | 0.01 | 70 | 1017.5 |
| 20260508024531 | 45 | 0 | 0.0 | 6.0 | 0.00 | 0.28 | 0.01 | 67 | 1017.5 |
| 20260508023034 | 44 | 0 | 0.0 | 0.0 | 0.00 | 0.28 | 0.01 | 71 | 1017.8 |
| 20260508021533 | 44 | 0 | 0.0 | 0.0 | 0.00 | 0.28 | 0.01 | 71 | 1017.9 |
| 20260508020030 | 44 | 0 | 0.0 | 0.0 | 0.00 | 0.28 | 0.01 | 70 | 1018.0 |
| 20260508014531 | 44 | 0 | 0.0 | 5.0 | 0.00 | 0.28 | 0.01 | 70 | 1018.1 |
| 20260508013030 | 44 | 0 | 0.0 | 0.0 | 0.00 | 0.28 | 0.01 | 69 | 1018.2 |
| 20260508011532 | 44 | 0 | 0.0 | 0.0 | 0.00 | 0.28 | 0.01 | 68 | 1018.2 |
| 20260508010038 | 44 | 340 | 0.0 | 7.0 | 0.00 | 0.28 | 0.01 | 69 | 1018.2 |
| 20260508004531 | 45 | 0 | 0.0 | 1.0 | 0.00 | 0.28 | 0.01 | 66 | 1018.3 |
| 20260508003029 | 47 | 0 | 0.0 | 3.0 | 0.00 | 0.28 | 0.01 | 57 | 1018.3 |
| 20260508001530 | 47 | 0 | 0.0 | 7.0 | 0.00 | 0.28 | 0.01 | 57 | 1018.4 |